Flag for U.S.A. Weather past 2 weeks in Fort Lauderdale, Florida, U.S.A.

Now
78 °F

Passing clouds.


Feels Like: 81 °F
Forecast: 77 / 86 °F
Wind: 3 mph from Southwest

Location: Fort Lauderdale / Hollywood International Airport

Current Time: Sep 30, 2014 at 8:00:56 AM

Latest Report: Sep 30, 2014 at 6:53 AM


Visibility: 10 mi

Pressure: 29.84 "Hg

Humidity: 90%

Dew point: 75 °F

Location of Fort LauderdaleLocation

Historic Weather in Fort Lauderdale — Graph

°F

Fort Lauderdale temperature yesterday

Maximum temperature yesterday: 88 °F (at 11:53 AM)
Minimum temperature yesterday: 77 °F (at 9:53 PM)
Average temperature yesterday: 83 °F

Past Weeks' High & Low Weather Summary

 TemperatureHumidityPressure
High91 °F (Sep 17, 12:53 PM)100% (Sep 20, 4:53 PM)30.15 "Hg (Sep 20, 4:53 PM)
Low73 °F (Sep 23, 9:53 AM)49% (Sep 17, 2:53 PM)29.82 "Hg (Sep 29, 3:53 PM)
Average81 °F79%29.96 "Hg
* Reported Sep 15 6:53 AM — Sep 30 6:53 AM, Fort Lauderdale, Weather by CustomWeather, © 2014

Note: Actual official high and low records may vary slightly from our data, if they occured in-between our weather recording intervals... More about our weather records

Advertising

Fort Lauderdale weather history for previous 24 hours

 ConditionsComfort  
Time TempWeatherWind HumidityBarometerVisibility
6:53 AM
Sep 30
78 °FPassing clouds.3 mph90%29.84 "Hg10 mi
5:53 AM78 °FPassing clouds.5 mph90%29.83 "Hg10 mi
4:53 AM78 °FPassing clouds.3 mph90%29.82 "Hg10 mi
3:53 AM78 °FPassing clouds.3 mph90%29.82 "Hg10 mi
2:53 AM78 °FPartly cloudy.3 mph90%29.84 "Hg10 mi
1:53 AM79 °FPartly cloudy.No wind90%29.85 "Hg10 mi
12:53 AM79 °FPassing clouds.No wind88%29.86 "Hg10 mi
11:53 PM
Sep 29
78 °FPassing clouds.No wind87%29.86 "Hg10 mi
10:53 PM77 °FOvercast.5 mph90%29.88 "Hg10 mi
9:53 PM77 °FMostly cloudy.7 mph90%29.89 "Hg10 mi
9:02 PM78 °FHeavy rain. Fog.5 mph90%29.90 "Hg2 mi
8:53 PM79 °FLight rain. Mostly cloudy.6 mph90%29.90 "Hg10 mi
7:53 PM80 °FThunderstorms. Mostly cloudy.9 mph85%29.86 "Hg10 mi
6:53 PM85 °FThunderstorms. Mostly cloudy.10 mph70%29.84 "Hg10 mi
5:53 PM86 °FPartly sunny.16 mph70%29.83 "Hg10 mi
4:53 PM88 °FScattered clouds.15 mph61%29.82 "Hg10 mi
3:53 PM88 °FScattered clouds.13 mph65%29.82 "Hg10 mi
2:53 PM88 °FPassing clouds.13 mph63%29.83 "Hg10 mi
1:53 PM87 °FBroken clouds.13 mph65%29.86 "Hg10 mi
12:53 PM88 °FScattered clouds.13 mph63%29.89 "Hg10 mi
11:53 AM88 °FBroken clouds.12 mph63%29.90 "Hg10 mi
10:53 AM87 °FSunny.9 mph65%29.91 "Hg10 mi
9:53 AM86 °FBroken clouds.6 mph67%29.91 "Hg10 mi
8:53 AM85 °FScattered clouds.3 mph70%29.91 "Hg10 mi
Weather by CustomWeather, © 2014

See weather overviewHow to use our weather pages